Regional Weather Roundup
Issued by NWS

Home | Current Version | Previous Version | Text Only | Print | Product List | Glossary On
Versions: 1 2 3 4 5 6 7 8 9 10 11 12 13 14 15 16 17 18 19 20 21 22 23 24 25 26 27 28 29 30 31 32 33 34 35 36 37 38 39 40 41 42 43 44 45 46 47 48 49 50
000
ASCA44 KEWX 031120
RWRMX

LATIN AMERICA AND CARIBBEAN REGIONAL WEATHER ROUNDUP
NATIONAL WEATHER SERVICE AUSTIN/SAN ANTONIO TX
600 AM CDT TUE AUG 03 2021

NOTE: "FAIR" INDICATED FEW OR NO CLOUDS BELOW 12,000 FEET WITH NO
SIGNIFICANT WEATHER AND/OR OBSTRUCTIONS TO VISIBILITY.

BAJA CALIFORNIA

CITY           SKY/WX    TMP DP  RH WIND       PRES   REMARKS
S.J. DEL CABO    N/A    N/A N/A N/A MISG        N/A
TIJUANA        CLEAR     66  61  82 CALM      29.99S

NORTHWESTERN MEXICO

CITY           SKY/WX    TMP DP  RH WIND       PRES   REMARKS
HERMOSILLO     PTCLDY    86  73  66 W5        29.88F HX  93

NORTHEASTERN MEXICO

CITY           SKY/WX    TMP DP  RH WIND       PRES   REMARKS
MONCLOVA         N/A    N/A N/A N/A MISG        N/A
MONTERREY      MOCLDY    75  72  88 W6        29.99R
REYNOSA          N/A    N/A N/A N/A MISG        N/A
SALTILLO       MOCLDY    68  54  60 CALM      30.24
CD. VICTORIA     N/A    N/A N/A N/A MISG        N/A

WESTERN MEXICO

CITY           SKY/WX    TMP DP  RH WIND       PRES   REMARKS
AGUASCALIENTES MOCLDY    61  59  94 CALM      30.29F
COLIMA           N/A    N/A N/A N/A MISG        N/A
DEL BAJIO      CLOUDY    61  59  94 NW6       30.33R
GUADALAJARA    MOCLDY    66  63  88 CALM      30.21S
MAZATLAN       MOCLDY    79  77  94 NE3       29.88F
P. VALLARTA      N/A    N/A N/A N/A MISG        N/A
URUAPAN          N/A    N/A N/A N/A MISG        N/A
ZACATECAS      PTCLDY    59  54  82 CALM      30.33S

CENTRAL MEXICO

CITY           SKY/WX    TMP DP  RH WIND       PRES   REMARKS
CUERNAVACA       N/A    N/A N/A N/A MISG        N/A
MEXICO CITY    MOCLDY    57  55  94 SW6       30.37S
MORELIA        CLOUDY    59  59 100 CALM      30.28R
POZA RICA        N/A    N/A N/A N/A MISG        N/A
QUERETARO      PTCLDY    59  59 100 CALM      30.34R
S. LUIS POTOSI PTCLDY    61  55  82 E3        30.29S
TAMPICO        CLEAR     81  77  89 CALM      29.93
TOLUCA         PTCLDY    50  48  93 CALM      30.42S FOG

SOUTHERN MEXICO

CITY           SKY/WX    TMP DP  RH WIND       PRES   REMARKS
ACAPULCO         N/A    N/A N/A N/A MISG        N/A
B. DE HUATULCO PTCLDY    77  70  78 CALM      29.91
OAXACA         CLEAR     59  55  88 CALM      30.26
P. ESCONDIDO   PTCLDY    77  72  83 E8        29.91
VERACRUZ       PTCLDY    77  75  94 CALM      29.94

YUCATAN PENINSULA

CITY           SKY/WX    TMP DP  RH WIND       PRES   REMARKS
CAMPECHE         N/A    N/A N/A N/A MISG        N/A
CANCUN         PTCLDY    81  75  83 SE5       29.98S
CHETUMAL       CLEAR     81  77  89 CALM      29.94S
CD. DEL CARMEN PTCLDY    81  75  83 SE12      29.92
COZUMEL          N/A    N/A N/A N/A MISG        N/A
MERIDA         MOCLDY    75  73  94 CALM      29.97S
MINATITLAN       N/A    N/A N/A N/A MISG        N/A
TAPACHULA      PTCLDY    77  77 100 N3        29.90R

CENTRAL AMERICA

CITY           SKY/WX    TMP DP  RH WIND       PRES   REMARKS
BELIZE CITY    PTCLDY    79  77  94 CALM      29.92
MANAGUA        MOSUNNY   77  75  94 CALM      29.86S

CARIBBEAN

CITY           SKY/WX    TMP DP  RH WIND       PRES   REMARKS
ARUBA          PTCLDY    81  75  83 E22       29.92R
CURACAO        PTCLDY    81  75  83 E18       29.94S
KINGSTON       PTCLDY    81  73  78 N7        29.94S
NASSAU         MOCLDY    82  75  78 SE16      30.03F
SAN JUAN       MOSUNNY   79  73  83 CALM      30.05R
SANTO DOMINGO  PTCLDY    75  73  94 NE6       30.00S
ST. CROIX      MOSUNNY   75  73  94 NE9       30.05R
ST. KITTS      MOSUNNY   81  73  78 E8        30.03S
ST. MAARTEN    MOSUNNY   81  75  83 NE8       30.06S

$$




USA.gov is the U.S. government's official web portal to all federal, state and local government web resources and services.